GW4108 Weather Reports


Display with metric or nautical units.
time (UTC)temp
F
wind
direction
speed
MPH
gust
MPH
rain 1hr
in
rain 24hr
in
rain mn
in
humidity
%
barometer
mb
20260504050346 55 73 0.0 1.0 0.00 0.02 0.02 42 1010.4
20260504045843 55 91 0.0 0.0 0.00 0.02 0.02 42 1010.3
20260504045338 56 91 0.0 0.0 0.00 0.02 0.02 41 1010.4
20260504044835 56 85 0.0 0.0 0.00 0.02 0.02 40 1010.5
20260504044333 58 85 0.0 0.0 0.00 0.02 0.02 39 1010.4
20260504043830 58 81 0.0 1.0 0.00 0.02 0.02 38 1010.6
20260504043327 58 65 1.0 2.0 0.00 0.02 0.02 37 1010.6
20260504042824 59 80 1.0 1.0 0.00 0.02 0.02 37 1010.4
20260504042320 59 43 1.0 2.0 0.00 0.02 0.02 36 1010.6
20260504041817 60 45 2.0 3.0 0.00 0.02 0.02 36 1010.7
20260504041313 59 49 2.0 2.0 0.00 0.02 0.02 36 1010.5
20260504040809 60 25 2.0 3.0 0.00 0.02 0.02 35 1010.6
20260504040307 60 6 3.0 3.0 0.00 0.02 0.02 36 1010.6
20260504035803 60 37 2.0 3.0 0.00 0.02 0.02 36 1010.6
20260504035300 60 346 2.0 4.0 0.00 0.02 0.02 36 1010.4
20260504034757 60 359 4.0 6.0 0.00 0.02 0.02 36 1010.5
20260504034255 60 43 1.0 2.0 0.00 0.02 0.02 36 1010.4
20260504033752 60 42 1.0 2.0 0.00 0.02 0.02 35 1010.5
20260504033249 60 68 1.0 2.0 0.00 0.02 0.02 36 1010.4
20260504032746 60 47 1.0 2.0 0.00 0.02 0.02 35 1010.4
20260504032243 61 45 2.0 3.0 0.00 0.02 0.02 34 1010.0
20260504031740 61 48 2.0 3.0 0.00 0.02 0.02 34 1010.3
20260504031238 61 59 1.0 3.0 0.00 0.02 0.02 34 1010.3
20260504030733 61 53 1.0 2.0 0.00 0.02 0.02 33 1010.1
20260504030230 61 341 2.0 2.0 0.00 0.02 0.02 33 1010.0
20260504025727 62 48 1.0 3.0 0.00 0.02 0.02 32 1009.9
20260504025223 62 354 3.0 3.0 0.00 0.02 0.02 32 1010.0
20260504024720 63 61 1.0 2.0 0.00 0.02 0.02 31 1010.0
20260504024216 63 359 1.0 3.0 0.00 0.02 0.02 31 1009.9
20260504023713 63 354 4.0 4.0 0.00 0.02 0.02 30 1009.8
20260504023209 64 24 3.0 4.0 0.00 0.02 0.02 29 1009.8
20260504022706 64 55 2.0 3.0 0.00 0.02 0.02 29 1009.8
20260504022202 64 40 2.0 2.0 0.00 0.02 0.02 29 1009.8
20260504021700 65 56 1.0 2.0 0.00 0.02 0.02 28 1009.9
20260504021156 65 35 2.0 3.0 0.00 0.02 0.02 27 1009.9
20260504020653 66 23 2.0 4.0 0.00 0.02 0.02 27 1009.7
20260504020149 66 14 3.0 6.0 0.00 0.02 0.02 26 1009.6
20260504015646 66 0 4.0 4.0 0.00 0.02 0.02 26 1009.9
20260504015142 67 2 4.0 8.0 0.00 0.02 0.02 25 1009.9
20260504014638 68 359 4.0 6.0 0.00 0.02 0.02 25 1009.9
20260504014136 68 353 6.0 8.0 0.00 0.02 0.02 24 1009.8
20260504013633 68 346 6.0 8.0 0.00 0.02 0.02 23 1009.8
20260504013130 68 303 7.0 11.0 0.00 0.02 0.02 23 1009.9
20260504012627 69 7 5.0 8.0 0.00 0.02 0.02 24 1010.0
20260504012125 69 356 6.0 11.0 0.00 0.02 0.02 25 1010.0
20260504011621 70 308 6.0 10.0 0.00 0.02 0.02 25 1009.9
20260504011118 70 312 12.0 15.0 0.00 0.02 0.02 23 1009.9
20260504010614 71 17 6.0 11.0 0.00 0.02 0.02 26 1009.9
20260504010110 71 357 7.0 8.0 0.00 0.02 0.02 26 1009.9
20260504005607 71 314 10.0 17.0 0.00 0.02 0.02 28 1009.7
20260504005104 71 287 7.0 14.0 0.00 0.02 0.02 28 1009.8
20260504004602 71 316 4.0 10.0 0.00 0.02 0.02 28 1010.0
20260504004059 71 330 9.0 11.0 0.00 0.02 0.02 29 1009.9
20260504003554 71 308 5.0 14.0 0.00 0.02 0.02 29 1010.0
20260504003051 71 270 7.0 18.0 0.00 0.02 0.02 29 1009.8
20260504002548 71 287 9.0 13.0 0.00 0.02 0.02 30 1009.9
20260504002046 71 332 9.0 14.0 0.00 0.02 0.02 29 1009.9
20260504001544 71 288 6.0 10.0 0.00 0.02 0.02 30 1010.0
20260504001039 71 310 4.0 8.0 0.00 0.02 0.02 29 1010.1
20260504000537 71 284 5.0 14.0 0.00 0.02 0.02 29 1010.1
20260504000034 71 289 8.0 10.0 0.00 0.02 0.02 28 1010.3
20260503235532 71 270 6.0 10.0 0.00 0.02 0.02 28 1010.1
20260503235029 71 316 10.0 11.0 0.00 0.02 0.02 28 1010.3
20260503234526 71 319 11.0 19.0 0.00 0.02 0.02 28 1010.1
20260503234025 71 318 11.0 14.0 0.00 0.02 0.02 28 1010.4
20260503233521 71 303 11.0 16.0 0.00 0.02 0.02 28 1010.4
20260503233017 72 278 10.0 14.0 0.00 0.02 0.02 26 1010.3
20260503232514 71 312 9.0 15.0 0.00 0.02 0.02 26 1010.4
20260503232012 71 284 12.0 15.0 0.00 0.02 0.02 27 1010.6
20260503231509 71 305 13.0 19.0 0.00 0.02 0.02 26 1010.5
20260503231006 71 319 11.0 15.0 0.00 0.02 0.02 27 1010.7
20260503230502 71 307 12.0 16.0 0.00 0.02 0.02 26 1010.7
20260503230000 71 282 14.0 18.0 0.00 0.02 0.02 26 1010.7
20260503225456 72 273 11.0 16.0 0.00 0.02 0.02 26 1010.5
20260503224952 71 261 4.0 9.0 0.00 0.02 0.02 26 1010.7
20260503224449 71 349 10.0 14.0 0.00 0.02 0.02 25 1010.9
20260503223947 71 259 15.0 21.0 0.00 0.02 0.02 25 1011.0
20260503223445 71 262 12.0 16.0 0.00 0.02 0.02 25 1010.9
20260503222940 71 261 16.0 21.0 0.00 0.02 0.02 25 1011.0
20260503222439 71 323 11.0 16.0 0.00 0.02 0.02 25 1010.9
20260503221936 71 274 15.0 19.0 0.00 0.02 0.02 25 1011.2
20260503221434 70 325 6.0 16.0 0.00 0.02 0.02 26 1011.2
20260503220931 71 334 4.0 13.0 0.00 0.02 0.02 28 1011.2
20260503220427 71 270 10.0 11.0 0.00 0.02 0.02 26 1011.4
20260503215925 70 300 7.0 13.0 0.00 0.02 0.02 28 1011.6
20260503215421 70 283 10.0 14.0 0.00 0.02 0.02 28 1011.7
20260503214919 71 247 8.0 14.0 0.00 0.02 0.02 28 1011.8
20260503214416 71 288 8.0 13.0 0.00 0.02 0.02 28 1011.8
20260503213914 70 287 11.0 14.0 0.00 0.02 0.02 27 1012.1
20260503213411 69 259 7.0 15.0 0.00 0.02 0.02 28 1011.9
20260503212908 70 330 8.0 13.0 0.00 0.02 0.02 26 1012.4
20260503212406 70 286 11.0 16.0 0.00 0.02 0.02 27 1012.3
20260503211903 70 296 10.0 15.0 0.00 0.02 0.02 27 1012.5
20260503211359 70 349 10.0 16.0 0.00 0.02 0.02 27 1012.2
20260503210854 70 288 10.0 11.0 0.00 0.02 0.02 27 1012.4
20260503210352 70 322 7.0 11.0 0.00 0.02 0.02 26 1012.8
20260503205847 69 323 9.0 17.0 0.00 0.02 0.02 27 1012.8
20260503205344 69 318 10.0 15.0 0.00 0.02 0.02 27 1013.0
20260503204840 69 305 12.0 14.0 0.00 0.02 0.02 27 1013.1
20260503204338 68 288 7.0 10.0 0.00 0.02 0.02 28 1013.3
20260503203835 69 329 8.0 13.0 0.00 0.02 0.02 28 1013.2
20260503203332 68 284 9.0 15.0 0.00 0.02 0.02 29 1013.3
20260503202829 68 283 11.0 18.0 0.00 0.02 0.02 28 1013.4
20260503202327 68 281 11.0 17.0 0.00 0.02 0.02 28 1013.5
20260503201825 68 306 10.0 11.0 0.00 0.02 0.02 29 1013.3
20260503201321 67 302 8.0 16.0 0.00 0.02 0.02 31 1013.4
20260503200819 69 304 12.0 15.0 0.00 0.02 0.02 28 1013.6
20260503200315 68 248 4.0 16.0 0.00 0.02 0.02 30 1013.5
20260503195812 67 284 6.0 9.0 0.00 0.02 0.02 30 1013.6
20260503195309 67 339 7.0 9.0 0.00 0.02 0.02 31 1013.6
20260503194806 67 210 9.0 11.0 0.00 0.02 0.02 30 1013.6
20260503194302 67 272 8.0 14.0 0.00 0.02 0.02 32 1013.9
20260503193758 67 233 8.0 14.0 0.00 0.02 0.02 30 1014.0
20260503193254 66 316 6.0 14.0 0.00 0.02 0.02 30 1014.2
20260503192750 67 311 10.0 13.0 0.00 0.02 0.02 30 1014.3
20260503192245 66 263 4.0 14.0 0.00 0.02 0.02 31 1014.4
20260503191743 66 273 5.0 11.0 0.00 0.02 0.02 31 1014.6
20260503191240 66 288 9.0 11.0 0.00 0.02 0.02 31 1014.8
20260503190736 66 275 6.0 8.0 0.00 0.02 0.02 35 1014.6
20260503190233 65 312 5.0 11.0 0.00 0.02 0.02 33 1014.8
20260503185731 66 340 9.0 14.0 0.00 0.02 0.02 31 1014.8
20260503185226 66 260 6.0 10.0 0.00 0.02 0.02 34 1014.9
20260503184721 65 2 6.0 8.0 0.00 0.02 0.02 32 1014.9
20260503184217 64 326 7.0 14.0 0.00 0.02 0.02 34 1015.2
20260503183714 65 187 6.0 16.0 0.00 0.02 0.02 34 1015.3
20260503183211 65 322 6.0 13.0 0.00 0.02 0.02 36 1015.1
20260503182709 64 204 3.0 13.0 0.00 0.02 0.02 36 1015.3
20260503182208 65 278 9.0 11.0 0.00 0.02 0.02 34 1015.5
20260503181703 65 301 7.0 9.0 0.00 0.02 0.02 36 1015.5
20260503181200 63 272 6.0 8.0 0.00 0.02 0.02 35 1015.5
20260503180657 64 280 7.0 9.0 0.00 0.02 0.02 35 1015.8
20260503180156 63 280 6.0 10.0 0.00 0.02 0.02 36 1015.5
20260503175652 63 323 5.0 9.0 0.00 0.02 0.02 39 1015.8
20260503175150 64 282 8.0 11.0 0.00 0.02 0.02 39 1015.9
20260503174646 62 271 9.0 13.0 0.00 0.02 0.02 35 1015.9
20260503174143 63 342 7.0 10.0 0.00 0.02 0.02 36 1016.0
20260503173638 62 288 8.0 14.0 0.00 0.02 0.02 43 1016.1
20260503173130 62 263 5.0 11.0 0.00 0.02 0.02 47 1016.1
20260503172626 62 286 4.0 11.0 0.00 0.02 0.02 47 1016.2
20260503172123 62 274 7.0 11.0 0.00 0.02 0.02 46 1016.2
20260503171620 62 279 6.0 9.0 0.00 0.02 0.02 49 1016.3
20260503171117 62 278 7.0 9.0 0.00 0.02 0.02 49 1016.2
20260503170614 61 267 4.0 11.0 0.00 0.02 0.02 50 1016.4
20260503170110 61 271 6.0 10.0 0.00 0.02 0.02 50 1016.3
20260503151006 54 283 3.0 4.0 0.00 0.02 0.02 69 1017.2
20260503150502 53 197 3.0 4.0 0.00 0.02 0.02 70 1017.1
20260503131344 46 150 1.0 2.0 0.00 0.02 0.02 81 1017.6
20260503130841 46 19 1.0 2.0 0.00 0.02 0.02 81 1017.6
20260503130339 50 309 3.0 4.0 0.00 0.02 0.02 75 1017.6
20260503110727 44 78 0.0 1.0 0.00 0.02 0.02 87 1017.6
20260503110224 45 111 0.0 1.0 0.00 0.02 0.02 86 1017.6
20260503100144 45 332 6.0 10.0 0.07 0.01 0.01 87 1019.8
20260503081533 49 75 1.0 1.0 0.00 0.00 0.00 59 1018.1
20260503081030 50 92 0.0 0.0 0.00 0.00 0.00 57 1017.9
20260503080526 51 101 0.0 0.0 0.00 0.00 0.00 55 1018.1
20260503072500 52 117 3.0 4.0 0.00 0.00 0.00 55 1018.0
20260503071957 53 118 4.0 4.0 0.00 0.00 0.00 54 1018.0
20260503071454 52 104 3.0 3.0 0.00 0.00 0.00 54 1018.2
20260503070950 52 103 3.0 3.0 0.00 0.00 0.00 54 1018.1
20260503070447 52 105 3.0 3.0 0.00 0.00 0.00 54 1018.2